Home > Time Zones > World Clock > Weather > India > Thane > Past weeks

Flag for India Weather past 2 weeks in Thane, Maharashtra, India

Now
81 °F

Passing clouds.


Feels Like: 88 °F
Forecast: 77 / 87 °F
Wind: No wind

Location: Bombay / Santacruz

Current Time: Sep 20, 2014 at 5:38:06 AM

Latest Report: Sep 20, 2014 at 5:10 AM


Visibility: 2 mi

Pressure: 29.74 "Hg

Humidity: 94%

Dew point: 79 °F

Location of ThaneLocation

Historic Weather in Thane — Graph

°F

Thane temperature yesterday

Maximum temperature yesterday: 84 °F (at 12:40 PM)
Minimum temperature yesterday: 79 °F (at 1:40 AM)
Average temperature yesterday: 81 °F

Past Weeks' High & Low Weather Summary

 TemperatureHumidityPressure
High88 °F (Sep 7, 1:10 PM)100% (Sep 5, 4:40 AM)30.07 "Hg (Sep 5, 4:40 AM)
Low77 °F (Sep 5, 4:40 AM)62% (Sep 14, 2:10 PM)29.65 "Hg (Sep 5, 4:40 AM)
Average82 °F85%29.76 "Hg
* Reported Sep 5 4:40 AM — Sep 20 4:10 AM, Thane, Weather by CustomWeather, © 2014

Note: Actual official high and low records may vary slightly from our data, if they occured in-between our weather recording intervals... More about our weather records

Advertising

Thane weather history for previous 24 hours

 ConditionsComfort  
Time TempWeatherWind HumidityBarometerVisibility
4:10 AM
Sep 20
81 °FPassing clouds.No wind94%29.74 "Hg1 mi
3:40 AM79 °FPassing clouds.No wind100%29.74 "Hg1 mi
3:10 AM79 °FLight rain. Passing clouds.8 mph100%29.74 "Hg1 mi
2:40 AM81 °FPassing clouds.5 mph94%29.74 "Hg1 mi
1:40 AM79 °FPassing clouds.5 mph100%29.77 "Hg1 mi
1:10 AM81 °FPassing clouds.5 mph94%29.77 "Hg1 mi
12:40 AM81 °FPartly cloudy.No wind94%29.77 "Hg1 mi
12:10 AM81 °FPartly cloudy.No wind94%29.80 "Hg1 mi
11:40 PM
Sep 19
81 °FPartly cloudy.3 mph94%29.80 "Hg1 mi
11:10 PM81 °FPartly cloudy.6 mph94%29.80 "Hg2 mi
10:40 PM81 °FPartly cloudy.5 mph89%29.83 "Hg2 mi
10:10 PM81 °FPartly cloudy.5 mph89%29.83 "Hg2 mi
9:40 PM81 °FPartly cloudy.3 mph94%29.83 "Hg2 mi
9:10 PM82 °FPartly cloudy.3 mph89%29.80 "Hg2 mi
8:40 PM82 °FPartly cloudy.3 mph89%29.80 "Hg2 mi
8:10 PM81 °FPartly cloudy.5 mph89%29.80 "Hg2 mi
7:40 PM81 °FPartly cloudy.5 mph89%29.77 "Hg2 mi
7:10 PM81 °FPartly cloudy.7 mph94%29.77 "Hg2 mi
6:40 PM82 °FBroken clouds.8 mph89%29.77 "Hg2 mi
6:10 PM82 °FScattered clouds.7 mph89%29.77 "Hg2 mi
5:40 PM82 °FBroken clouds.6 mph84%29.74 "Hg2 mi
5:10 PM82 °FBroken clouds.9 mph84%29.77 "Hg2 mi
4:40 PM82 °FBroken clouds.10 mph84%29.74 "Hg2 mi
4:10 PM82 °FBroken clouds.12 mph84%29.74 "Hg2 mi
3:40 PM81 °FBroken clouds.10 mph84%29.77 "Hg2 mi
3:10 PM81 °FBroken clouds.13 mph84%29.77 "Hg2 mi
2:10 PM81 °FScattered showers. Broken clouds.10 mph79%29.80 "Hg1 mi
1:10 PM84 °FBroken clouds.14 mph79%29.80 "Hg2 mi
12:40 PM84 °FBroken clouds.5 mph79%29.80 "Hg2 mi
12:10 PM82 °FBroken clouds.6 mph84%29.83 "Hg2 mi
11:40 AM81 °FMore clouds than sun.5 mph89%29.83 "Hg2 mi
11:10 AM81 °FMore clouds than sun.8 mph89%29.86 "Hg2 mi
10:40 AM81 °FMore clouds than sun.5 mph89%29.86 "Hg2 mi
9:10 AM79 °FMore clouds than sun.7 mph100%29.86 "Hg1 mi
8:40 AM79 °FMore clouds than sun.3 mph94%29.83 "Hg1 mi
8:10 AM79 °FRain. More clouds than sun.3 mph94%29.83 "Hg1 mi
7:40 AM79 °FScattered showers. Broken clouds.No wind94%29.83 "Hg1 mi
7:10 AM79 °FScattered showers. Broken clouds.5 mph94%29.80 "Hg1 mi
6:40 AM79 °FLight rain. Mostly cloudy.7 mph94%29.80 "Hg1 mi
6:10 AM79 °FPartly cloudy.5 mph94%29.80 "Hg1 mi
5:40 AM79 °FPartly cloudy.3 mph94%29.77 "Hg1 mi
5:10 AM79 °FPartly cloudy.3 mph94%29.77 "Hg1 mi
Weather by CustomWeather, © 2014

See weather overviewHow to use our weather pages